User: anonymous
Location: Fort Wayne
(41.1310°N, 85.1290°W)
Time: 05:04:25
(UTC-04:00)
Language:

Helios 1B - Orbit

View from above orbital plane
View from above orbital plane
View from above satellite
View from above satellite

Ground track
Ground track

The orbit data is extracted from the following two-line orbital elements,

1 25977U 99064A   14210.32493690  .00000835  00000-0  11662-3 0  3171
2 25977 098.1638 288.4799 0002567 101.3624 300.4480 14.80351165787961
Epoch (UTC): 29 July 2014 07:47:54
Eccentricity: 0.0002567
inclination: 98.1638°
perigee height: 626 km
apogee height: 630 km
right ascension of ascending node: 288.4799°
argument of perigee: 101.3624°
revolutions per day: 14.80351165
mean anomaly at epoch: 300.4480°
orbit number at epoch: 78796

The dashed part of the orbit path shows where the satellite is in the earth's shadow,  

DLR